| time (UTC) | temp C | wind direction | speed KPH | gust KPH | rain 1hr cm | rain 24hr cm | rain mn cm | humidity % | barometer mb |
| 20260906201508 | 27 | 181 | 3.2 | 8.0 | 0.00 | 0.00 | 0.00 | 72 | 1014.6 |
| 20260906200006 | 26 | 175 | 0.0 | 8.0 | 0.00 | 0.00 | 0.00 | 74 | 1014.5 |
| 20260906194506 | 26 | 175 | 0.0 | 9.7 | 0.00 | 0.00 | 0.00 | 73 | 1014.2 |
| 20260906191506 | 26 | 155 | 3.2 | 14.5 | 0.00 | 0.00 | 0.00 | 73 | 1013.9 |
| 20260906190003 | 26 | 190 | 9.7 | 16.1 | 0.00 | 0.00 | 0.00 | 74 | 1014.3 |
| 20260906184602 | 26 | 190 | 12.9 | 20.9 | 0.00 | 0.00 | 0.00 | 73 | 1014.7 |
| 20260906183201 | 26 | 165 | 9.7 | 17.7 | 0.00 | 0.00 | 0.00 | 72 | 1014.7 |
| 20260906181558 | 26 | 147 | 9.7 | 19.3 | 0.00 | 0.00 | 0.00 | 73 | 1015.0 |
| 20260906180056 | 26 | 173 | 11.3 | 19.3 | 0.00 | 0.00 | 0.00 | 73 | 1015.1 |
| 20260906174557 | 25 | 141 | 11.3 | 20.9 | 0.00 | 0.00 | 0.00 | 74 | 1015.3 |
| 20260906173152 | 25 | 112 | 9.7 | 20.9 | 0.00 | 0.00 | 0.00 | 74 | 1015.2 |
| 20260906171552 | 24 | 105 | 16.1 | 19.3 | 0.00 | 0.00 | 0.00 | 75 | 1015.5 |
| 20260906170048 | 24 | 128 | 12.9 | 20.9 | 0.00 | 0.10 | 0.00 | 76 | 1015.6 |
| 20260906164544 | 23 | 118 | 14.5 | 20.9 | 0.00 | 0.10 | 0.00 | 76 | 1016.0 |
| 20260906163142 | 23 | 121 | 9.7 | 16.1 | 0.00 | 0.10 | 0.00 | 76 | 1016.1 |
| 20260906161538 | 23 | 123 | 8.0 | 17.7 | 0.00 | 0.10 | 0.00 | 77 | 1016.3 |
| 20260906160036 | 23 | 109 | 6.4 | 17.7 | 0.00 | 0.86 | 0.00 | 77 | 1016.4 |
| 20260906154535 | 22 | 107 | 8.0 | 17.7 | 0.00 | 0.86 | 0.00 | 77 | 1016.5 |
| 20260906153134 | 22 | 87 | 12.9 | 16.1 | 0.00 | 0.86 | 0.00 | 77 | 1016.5 |
| 20260906151534 | 22 | 102 | 8.0 | 14.5 | 0.00 | 0.86 | 0.00 | 78 | 1016.6 |
| 20260906150035 | 22 | 112 | 9.7 | 12.9 | 0.00 | 0.86 | 0.00 | 78 | 1016.7 |
| 20260906144531 | 21 | 115 | 8.0 | 11.3 | 0.00 | 0.86 | 0.00 | 79 | 1016.9 |
| 20260906143127 | 21 | 114 | 8.0 | 12.9 | 0.00 | 0.86 | 0.00 | 79 | 1016.8 |
| 20260906141526 | 21 | 123 | 6.4 | 12.9 | 0.00 | 0.86 | 0.00 | 79 | 1016.8 |
| 20260906140040 | 21 | 122 | 9.7 | 14.5 | 0.00 | 0.86 | 0.00 | 79 | 1016.9 |
| 20260906134525 | 20 | 115 | 11.3 | 17.7 | 0.00 | 0.86 | 0.00 | 82 | 1017.0 |
| 20260906133019 | 20 | 118 | 6.4 | 11.3 | 0.00 | 0.86 | 0.00 | 84 | 1016.8 |
| 20260906131516 | 18 | 146 | 3.2 | 6.4 | 0.00 | 0.86 | 0.00 | 84 | 1016.9 |
| 20260906130015 | 18 | 147 | 1.6 | 4.8 | 0.00 | 0.86 | 0.00 | 83 | 1016.8 |
| 20260906124513 | 17 | 148 | 1.6 | 4.8 | 0.00 | 0.86 | 0.00 | 84 | 1016.7 |
| 20260906123015 | 17 | 148 | 0.0 | 0.0 | 0.00 | 0.86 | 0.00 | 83 | 1016.6 |
| 20260906121512 | 17 | 148 | 0.0 | 3.2 | 0.00 | 0.86 | 0.00 | 83 | 1016.6 |
| 20260906120010 | 17 | 148 | 1.6 | 3.2 | 0.00 | 0.86 | 0.00 | 82 | 1016.5 |
| 20260906114514 | 17 | 148 | 1.6 | 4.8 | 0.00 | 0.86 | 0.00 | 82 | 1016.3 |
| 20260906113108 | 17 | 148 | 1.6 | 4.8 | 0.00 | 0.86 | 0.00 | 82 | 1016.3 |
| 20260906111505 | 18 | 150 | 4.8 | 8.0 | 0.00 | 0.86 | 0.00 | 82 | 1016.4 |
| 20260906110002 | 18 | 152 | 1.6 | 3.2 | 0.00 | 0.86 | 0.00 | 82 | 1016.1 |
| 20260906104504 | 18 | 152 | 3.2 | 9.7 | 0.00 | 0.86 | 0.00 | 82 | 1015.8 |
| 20260906103101 | 18 | 145 | 6.4 | 12.9 | 0.00 | 0.86 | 0.00 | 82 | 1015.7 |
| 20260906101503 | 18 | 158 | 4.8 | 8.0 | 0.00 | 0.86 | 0.00 | 81 | 1015.9 |
| 20260906100100 | 18 | 152 | 6.4 | 11.3 | 0.00 | 0.86 | 0.00 | 81 | 1015.9 |
| 20260906094609 | 18 | 141 | 6.4 | 11.3 | 0.00 | 0.86 | 0.00 | 81 | 1016.0 |
| 20260906093114 | 18 | 128 | 4.8 | 8.0 | 0.00 | 0.86 | 0.00 | 81 | 1015.8 |
| 20260906091559 | 18 | 123 | 6.4 | 12.9 | 0.00 | 0.86 | 0.00 | 81 | 1015.8 |
| 20260906090135 | 18 | 139 | 8.0 | 16.1 | 0.00 | 0.86 | 0.00 | 81 | 1015.8 |
| 20260906084609 | 18 | 138 | 11.3 | 17.7 | 0.00 | 0.86 | 0.00 | 81 | 1015.8 |
| 20260906083055 | 18 | 139 | 8.0 | 14.5 | 0.00 | 0.86 | 0.00 | 81 | 1016.0 |
| 20260906081552 | 18 | 138 | 6.4 | 12.9 | 0.00 | 0.86 | 0.00 | 81 | 1015.9 |
| 20260906080103 | 18 | 115 | 4.8 | 6.4 | 0.00 | 0.86 | 0.86 | 81 | 1016.2 |
| 20260906074555 | 18 | 111 | 1.6 | 4.8 | 0.00 | 0.86 | 0.86 | 80 | 1016.2 |
| 20260906073053 | 18 | 111 | 3.2 | 6.4 | 0.00 | 0.86 | 0.86 | 80 | 1016.3 |
| 20260906071551 | 18 | 111 | 1.6 | 4.8 | 0.00 | 0.86 | 0.86 | 80 | 1016.5 |
| 20260906070051 | 18 | 112 | 3.2 | 4.8 | 0.00 | 0.86 | 0.86 | 80 | 1016.7 |
| 20260906064550 | 18 | 113 | 3.2 | 6.4 | 0.00 | 0.86 | 0.86 | 80 | 1016.9 |
| 20260906063054 | 18 | 112 | 0.0 | 1.6 | 0.00 | 0.86 | 0.86 | 80 | 1016.9 |
| 20260906061554 | 19 | 112 | 1.6 | 6.4 | 0.00 | 0.86 | 0.86 | 81 | 1016.7 |
| 20260906060048 | 18 | 111 | 3.2 | 9.7 | 0.00 | 0.86 | 0.86 | 81 | 1016.4 |
| 20260906054549 | 18 | 73 | 3.2 | 6.4 | 0.00 | 0.86 | 0.86 | 79 | 1016.4 |
| 20260906053103 | 18 | 24 | 3.2 | 4.8 | 0.00 | 0.86 | 0.86 | 79 | 1016.5 |
| 20260906051548 | 19 | 24 | 8.0 | 9.7 | 0.00 | 0.86 | 0.86 | 78 | 1016.5 |
| 20260906050047 | 20 | 81 | 4.8 | 8.0 | 0.00 | 0.86 | 0.86 | 79 | 1016.3 |
| 20260906044547 | 20 | 58 | 4.8 | 12.9 | 0.00 | 0.86 | 0.86 | 78 | 1016.3 |
| 20260906043049 | 20 | 103 | 9.7 | 19.3 | 0.00 | 0.86 | 0.86 | 79 | 1016.0 |
| 20260906041554 | 19 | 98 | 14.5 | 22.5 | 0.00 | 0.86 | 0.86 | 79 | 1015.6 |
| 20260906040046 | 19 | 85 | 9.7 | 14.5 | 0.00 | 0.86 | 0.86 | 79 | 1016.1 |
| 20260906034546 | 19 | 84 | 6.4 | 12.9 | 0.00 | 0.86 | 0.86 | 78 | 1016.4 |
| 20260906033047 | 19 | 42 | 4.8 | 9.7 | 0.00 | 0.86 | 0.86 | 78 | 1016.8 |
| 20260906031544 | 20 | 65 | 3.2 | 8.0 | 0.00 | 0.86 | 0.86 | 77 | 1016.9 |
| 20260906030050 | 20 | 53 | 6.4 | 9.7 | 0.00 | 0.86 | 0.86 | 77 | 1017.0 |
| 20260906024605 | 20 | 56 | 6.4 | 11.3 | 0.00 | 0.86 | 0.86 | 77 | 1016.8 |
| 20260906023047 | 20 | 55 | 6.4 | 14.5 | 0.00 | 0.86 | 0.86 | 77 | 1016.6 |
| 20260906021543 | 20 | 42 | 8.0 | 11.3 | 0.00 | 0.86 | 0.86 | 77 | 1016.5 |
| 20260906020044 | 21 | 58 | 8.0 | 11.3 | 0.00 | 0.86 | 0.86 | 77 | 1016.3 |
| 20260906014550 | 21 | 74 | 8.0 | 12.9 | 0.00 | 0.86 | 0.86 | 77 | 1016.1 |
| 20260906013043 | 22 | 65 | 3.2 | 6.4 | 0.00 | 0.86 | 0.86 | 75 | 1016.1 |
| 20260906011555 | 22 | 67 | 4.8 | 6.4 | 0.00 | 0.86 | 0.86 | 75 | 1016.0 |
| 20260906010101 | 23 | 65 | 0.0 | 1.6 | 0.00 | 0.86 | 0.86 | 74 | 1015.5 |
| 20260906004546 | 23 | 65 | 1.6 | 4.8 | 0.00 | 0.86 | 0.86 | 73 | 1015.2 |
| 20260906003044 | 24 | 66 | 3.2 | 6.4 | 0.00 | 0.86 | 0.86 | 71 | 1015.0 |
| 20260906001558 | 25 | 66 | 3.2 | 6.4 | 0.00 | 0.86 | 0.86 | 70 | 1014.5 |
| 20260906000040 | 26 | 71 | 6.4 | 14.5 | 0.00 | 0.86 | 0.86 | 69 | 1014.1 |
| 20260905234541 | 26 | 86 | 12.9 | 20.9 | 0.00 | 0.86 | 0.86 | 68 | 1013.6 |
| 20260905233040 | 27 | 117 | 14.5 | 22.5 | 0.00 | 0.86 | 0.86 | 65 | 1013.4 |
| 20260905231544 | 27 | 90 | 14.5 | 17.7 | 0.00 | 0.86 | 0.86 | 65 | 1013.3 |
| 20260905230044 | 28 | 159 | 11.3 | 17.7 | 0.00 | 0.86 | 0.86 | 63 | 1013.4 |
| 20260905224544 | 27 | 134 | 4.8 | 11.3 | 0.00 | 0.86 | 0.86 | 64 | 1013.5 |
| 20260905223041 | 28 | 142 | 1.6 | 6.4 | 0.00 | 0.86 | 0.86 | 62 | 1013.4 |
| 20260905221541 | 28 | 141 | 4.8 | 12.9 | 0.00 | 0.86 | 0.86 | 62 | 1013.5 |
| 20260905220036 | 28 | 129 | 4.8 | 16.1 | 0.00 | 0.86 | 0.86 | 62 | 1013.7 |
| 20260905214535 | 28 | 130 | 8.0 | 16.1 | 0.00 | 0.86 | 0.86 | 63 | 1014.0 |
| 20260905213033 | 27 | 175 | 6.4 | 12.9 | 0.00 | 0.86 | 0.86 | 62 | 1014.0 |
| 20260905211541 | 27 | 188 | 9.7 | 16.1 | 0.00 | 0.86 | 0.86 | 64 | 1014.1 |
| 20260905210033 | 27 | 184 | 0.0 | 16.1 | 0.00 | 0.86 | 0.86 | 66 | 1014.0 |
| 20260905204531 | 27 | 171 | 12.9 | 29.0 | 0.00 | 0.86 | 0.86 | 65 | 1013.8 |